Year,Month,Day,Hour,Minute,Value (Times are PST for temperature in C)
2011,10,31,08,53,5.20
2011,10,31,08,54,5.20
2011,10,31,08,55,5.20
2011,10,31,08,56,5.30
2011,10,31,08,57,5.30
2011,10,31,08,58,5.30
2011,10,31,08,59,5.40
2011,10,31,09,00,5.40
2011,10,31,09,01,5.40
2011,10,31,09,02,5.50
2011,10,31,09,03,5.50
2011,10,31,09,04,5.50
2011,10,31,09,05,5.60
2011,10,31,09,06,5.60
2011,10,31,09,07,5.60
2011,10,31,09,08,5.70
2011,10,31,09,09,5.70
2011,10,31,09,10,5.80
2011,10,31,09,11,5.90
2011,10,31,09,12,5.90
2011,10,31,09,13,6.00
2011,10,31,09,14,6.10
2011,10,31,09,15,6.10
2011,10,31,09,16,6.20
2011,10,31,09,17,6.30
2011,10,31,09,18,6.30
2011,10,31,09,19,6.40
2011,10,31,09,20,6.50
2011,10,31,09,21,6.50
2011,10,31,09,22,6.50
2011,10,31,09,23,6.60
2011,10,31,09,24,6.70
2011,10,31,09,25,6.70
2011,10,31,09,26,6.80
2011,10,31,09,27,6.80
2011,10,31,09,28,6.90
2011,10,31,09,29,7.00
2011,10,31,09,30,7.00
2011,10,31,09,31,7.10
2011,10,31,09,32,7.10
2011,10,31,09,33,7.20
2011,10,31,09,34,7.20
2011,10,31,09,35,7.20
2011,10,31,09,36,7.30
2011,10,31,09,37,7.30
2011,10,31,09,38,7.30
2011,10,31,09,39,7.40
2011,10,31,09,40,7.50
2011,10,31,09,41,7.60
2011,10,31,09,42,7.70
2011,10,31,09,43,7.80
2011,10,31,09,44,7.80
2011,10,31,09,45,7.90
2011,10,31,09,46,8.00
2011,10,31,09,47,8.10
2011,10,31,09,48,8.20
2011,10,31,09,49,8.30
2011,10,31,09,50,8.30
2011,10,31,09,51,8.40
2011,10,31,09,52,8.50
2011,10,31,09,53,8.50
2011,10,31,09,54,8.60
2011,10,31,09,55,8.60
2011,10,31,09,56,8.60
2011,10,31,09,57,8.70
2011,10,31,09,58,8.70
2011,10,31,09,59,8.70
2011,10,31,10,00,8.80
2011,10,31,10,01,8.80
2011,10,31,10,02,8.80
2011,10,31,10,03,8.90
2011,10,31,10,04,8.90
2011,10,31,10,05,9.00
2011,10,31,10,06,9.00
2011,10,31,10,07,9.10
2011,10,31,10,08,9.10
2011,10,31,10,09,9.20
2011,10,31,10,10,9.20
2011,10,31,10,11,9.30
2011,10,31,10,12,9.30
2011,10,31,10,13,9.30
2011,10,31,10,14,9.30
2011,10,31,10,15,9.30
2011,10,31,10,16,9.40
2011,10,31,10,17,9.40
2011,10,31,10,18,9.40
2011,10,31,10,19,9.40
2011,10,31,10,20,9.50
2011,10,31,10,21,9.50
2011,10,31,10,22,9.50
2011,10,31,10,23,9.60
2011,10,31,10,24,9.70
2011,10,31,10,25,9.80
2011,10,31,10,26,9.90
2011,10,31,10,27,10.00
2011,10,31,10,28,10.10
2011,10,31,10,29,10.20
2011,10,31,10,30,10.30
2011,10,31,10,31,10.30
2011,10,31,10,32,10.40
2011,10,31,10,33,10.40
2011,10,31,10,34,10.50
2011,10,31,10,35,10.50
2011,10,31,10,36,10.60
2011,10,31,10,37,10.60
2011,10,31,10,38,10.70
2011,10,31,10,39,10.60
2011,10,31,10,40,10.60
2011,10,31,10,41,10.50
2011,10,31,10,42,10.40
2011,10,31,10,43,10.30
2011,10,31,10,44,10.20
2011,10,31,10,45,10.20
2011,10,31,10,46,10.10
2011,10,31,10,47,10.10
2011,10,31,10,48,10.10
2011,10,31,10,49,10.10
2011,10,31,10,50,10.10
2011,10,31,10,51,10.10
2011,10,31,10,52,10.10
2011,10,31,10,53,10.10
2011,10,31,10,54,10.10
2011,10,31,10,55,10.10
2011,10,31,10,56,10.10
2011,10,31,10,57,10.10
2011,10,31,10,58,10.10
2011,10,31,10,59,10.10
2011,10,31,11,00,10.10
2011,10,31,11,01,10.10
2011,10,31,11,02,10.20
2011,10,31,11,03,10.20
2011,10,31,11,04,10.20
2011,10,31,11,05,10.20
2011,10,31,11,06,10.20
2011,10,31,11,07,10.20
2011,10,31,11,08,10.20
2011,10,31,11,09,10.20
2011,10,31,11,10,10.20
2011,10,31,11,11,10.20
2011,10,31,11,12,10.20
2011,10,31,11,13,10.10
2011,10,31,11,14,10.10
2011,10,31,11,15,10.10
2011,10,31,11,16,10.10
2011,10,31,11,17,10.20
2011,10,31,11,18,10.20
2011,10,31,11,19,10.20
2011,10,31,11,20,10.30
2011,10,31,11,21,10.30
2011,10,31,11,22,10.30
2011,10,31,11,23,10.30
2011,10,31,11,24,10.30
2011,10,31,11,25,10.30
2011,10,31,11,26,10.30
2011,10,31,11,27,10.30
2011,10,31,11,28,10.40
2011,10,31,11,29,10.40
2011,10,31,11,30,10.40
2011,10,31,11,31,10.40
2011,10,31,11,32,10.40
2011,10,31,11,33,10.50
2011,10,31,11,34,10.50
2011,10,31,11,35,10.50
2011,10,31,11,36,10.60
2011,10,31,11,37,10.60
2011,10,31,11,38,10.60
2011,10,31,11,39,10.70
2011,10,31,11,40,10.70
2011,10,31,11,41,10.80
2011,10,31,11,42,10.80
2011,10,31,11,43,10.80
2011,10,31,11,44,10.90
2011,10,31,11,45,10.90
2011,10,31,11,46,10.90
2011,10,31,11,47,11.00
2011,10,31,11,48,11.00
2011,10,31,11,49,11.00
2011,10,31,11,50,10.90
2011,10,31,11,51,11.00
2011,10,31,11,52,11.00
2011,10,31,11,53,11.00
2011,10,31,11,54,11.10
2011,10,31,11,55,11.10
2011,10,31,11,56,11.20
2011,10,31,11,57,11.20
2011,10,31,11,58,11.30
2011,10,31,11,59,11.30
2011,10,31,12,00,11.40
2011,10,31,12,01,11.50
2011,10,31,12,02,11.50
2011,10,31,12,03,11.60
2011,10,31,12,04,11.60
2011,10,31,12,05,11.50
2011,10,31,12,06,11.50
2011,10,31,12,07,11.40
2011,10,31,12,08,11.40
2011,10,31,12,09,11.40
2011,10,31,12,10,11.50
2011,10,31,12,11,11.40
2011,10,31,12,12,11.30
2011,10,31,12,13,11.20
2011,10,31,12,14,11.10
2011,10,31,12,15,11.10
2011,10,31,12,16,11.00
2011,10,31,12,17,11.00
2011,10,31,12,18,10.90
2011,10,31,12,19,11.00
2011,10,31,12,20,11.00
2011,10,31,12,21,11.00
2011,10,31,12,22,11.00
2011,10,31,12,23,11.10
2011,10,31,12,24,11.10
2011,10,31,12,25,11.00
2011,10,31,12,26,10.90
2011,10,31,12,27,10.90
2011,10,31,12,28,10.80
2011,10,31,12,29,10.70
2011,10,31,12,30,10.70
2011,10,31,12,31,10.70
2011,10,31,12,32,10.70
2011,10,31,12,33,10.70
2011,10,31,12,34,10.70
2011,10,31,12,35,10.80
2011,10,31,12,36,10.80
2011,10,31,12,37,10.80
2011,10,31,12,38,10.90
2011,10,31,12,39,10.90
2011,10,31,12,40,11.00
2011,10,31,12,41,11.00
2011,10,31,12,42,11.00
2011,10,31,12,43,11.00
2011,10,31,12,44,11.00
2011,10,31,12,45,11.10
2011,10,31,12,46,11.10
2011,10,31,12,47,11.10
2011,10,31,12,48,11.00
2011,10,31,12,49,10.90
2011,10,31,12,50,10.80
2011,10,31,12,51,10.70
2011,10,31,12,52,10.60
2011,10,31,12,53,10.60
2011,10,31,12,54,10.50
2011,10,31,12,55,10.50
2011,10,31,12,56,10.40
2011,10,31,12,57,10.40
2011,10,31,12,58,10.40
2011,10,31,12,59,10.30
2011,10,31,13,00,10.30
2011,10,31,13,01,10.30
2011,10,31,13,02,10.30
2011,10,31,13,03,10.30
2011,10,31,13,04,10.30
2011,10,31,13,05,10.20
2011,10,31,13,06,10.20
2011,10,31,13,07,10.30
2011,10,31,13,08,10.30
2011,10,31,13,09,10.30
2011,10,31,13,10,10.30
2011,10,31,13,11,10.30
2011,10,31,13,12,10.30
2011,10,31,13,13,10.30
2011,10,31,13,14,10.30
2011,10,31,13,15,10.30
2011,10,31,13,16,10.40
2011,10,31,13,17,10.40
2011,10,31,13,18,10.40
2011,10,31,13,19,10.40
2011,10,31,13,20,10.40
2011,10,31,13,21,10.40
2011,10,31,13,22,10.40
2011,10,31,13,23,10.40
2011,10,31,13,24,10.40
2011,10,31,13,25,10.40
2011,10,31,13,26,10.40
2011,10,31,13,27,10.40
2011,10,31,13,28,10.40
2011,10,31,13,29,10.40
2011,10,31,13,30,10.40
2011,10,31,13,31,10.40
2011,10,31,13,32,10.40
2011,10,31,13,33,10.40
2011,10,31,13,34,10.40
2011,10,31,13,35,10.40
2011,10,31,13,36,10.40
2011,10,31,13,37,10.40
2011,10,31,13,38,10.40
2011,10,31,13,39,10.40
2011,10,31,13,40,10.40
2011,10,31,13,41,10.40
2011,10,31,13,42,10.40
2011,10,31,13,43,10.40
2011,10,31,13,44,10.40
2011,10,31,13,45,10.50
2011,10,31,13,46,10.50
2011,10,31,13,47,10.60
2011,10,31,13,48,10.70
2011,10,31,13,49,10.80
2011,10,31,13,50,10.80
2011,10,31,13,51,10.90
2011,10,31,13,52,10.90
2011,10,31,13,53,11.00
2011,10,31,13,54,11.10
2011,10,31,13,55,11.20
2011,10,31,13,56,11.20
2011,10,31,13,57,11.30
2011,10,31,13,58,11.30
2011,10,31,13,59,11.30
2011,10,31,14,00,11.30
2011,10,31,14,01,11.40
2011,10,31,14,02,11.40
2011,10,31,14,03,11.40
2011,10,31,14,04,11.40
2011,10,31,14,05,11.40
2011,10,31,14,06,11.40
2011,10,31,14,07,11.40
2011,10,31,14,08,11.40
2011,10,31,14,09,11.40
2011,10,31,14,10,11.40
2011,10,31,14,11,11.40
2011,10,31,14,12,11.30
2011,10,31,14,13,11.20
2011,10,31,14,14,11.10
2011,10,31,14,15,11.00
2011,10,31,14,16,10.90
2011,10,31,14,17,10.80
2011,10,31,14,18,10.80
2011,10,31,14,19,10.80
2011,10,31,14,20,10.80
2011,10,31,14,21,10.70
2011,10,31,14,22,10.70
2011,10,31,14,23,10.70
2011,10,31,14,24,10.70
2011,10,31,14,25,10.80
2011,10,31,14,26,10.80
2011,10,31,14,27,10.80
2011,10,31,14,28,10.80
2011,10,31,14,29,10.90
2011,10,31,14,30,10.90
2011,10,31,14,31,11.00
2011,10,31,14,32,11.00
2011,10,31,14,33,11.00
2011,10,31,14,34,11.00
2011,10,31,14,35,11.00
2011,10,31,14,36,10.90
2011,10,31,14,37,10.90
2011,10,31,14,38,10.80
2011,10,31,14,39,10.80
2011,10,31,14,40,10.80
2011,10,31,14,41,10.70
2011,10,31,14,42,10.80
2011,10,31,14,43,10.80
2011,10,31,14,44,10.80
2011,10,31,14,45,10.80
2011,10,31,14,46,10.90
2011,10,31,14,47,10.90
2011,10,31,14,48,11.00
2011,10,31,14,49,11.00
2011,10,31,14,50,11.10
2011,10,31,14,51,11.10
2011,10,31,14,52,11.20
2011,10,31,14,53,11.20
2011,10,31,14,54,11.20
2011,10,31,14,55,11.20
2011,10,31,14,56,11.20
2011,10,31,14,57,11.20
2011,10,31,14,58,11.20
2011,10,31,14,59,11.30
2011,10,31,15,00,11.30
2011,10,31,15,01,11.30
2011,10,31,15,02,11.30
2011,10,31,15,03,11.30
2011,10,31,15,04,11.30
2011,10,31,15,05,11.30
2011,10,31,15,06,11.30
2011,10,31,15,07,11.30
2011,10,31,15,08,11.30
2011,10,31,15,09,11.20
2011,10,31,15,10,11.20
2011,10,31,15,11,11.20
2011,10,31,15,12,11.20
2011,10,31,15,13,11.20
2011,10,31,15,14,11.20
2011,10,31,15,15,11.20
2011,10,31,15,16,11.20
2011,10,31,15,17,11.30
2011,10,31,15,18,11.30
2011,10,31,15,19,11.30
2011,10,31,15,20,11.30
2011,10,31,15,21,11.30
2011,10,31,15,22,11.30
2011,10,31,15,23,11.30
2011,10,31,15,24,11.40
2011,10,31,15,25,11.30
2011,10,31,15,26,11.30
2011,10,31,15,27,11.40
2011,10,31,15,28,11.40
2011,10,31,15,29,11.40
2011,10,31,15,30,11.40
2011,10,31,15,31,11.40
2011,10,31,15,32,11.40
2011,10,31,15,33,11.40
2011,10,31,15,34,11.40
2011,10,31,15,35,11.40
2011,10,31,15,36,11.40
2011,10,31,15,37,11.40
2011,10,31,15,38,11.40
2011,10,31,15,39,11.40
2011,10,31,15,40,11.40
2011,10,31,15,41,11.40
2011,10,31,15,42,11.40
2011,10,31,15,43,11.40
2011,10,31,15,44,11.50
2011,10,31,15,45,11.50
2011,10,31,15,46,11.50
2011,10,31,15,47,11.60
2011,10,31,15,48,11.60
2011,10,31,15,49,11.60
2011,10,31,15,50,11.60
2011,10,31,15,51,11.60
2011,10,31,15,52,11.50
2011,10,31,15,53,11.50
2011,10,31,15,54,11.50
2011,10,31,15,55,11.50
2011,10,31,15,56,11.40
2011,10,31,15,57,11.40
2011,10,31,15,58,11.40
2011,10,31,15,59,11.40
2011,10,31,16,00,11.40
2011,10,31,16,01,11.40
2011,10,31,16,02,11.40
2011,10,31,16,03,11.30
2011,10,31,16,04,11.30
2011,10,31,16,05,11.20
2011,10,31,16,06,11.10
2011,10,31,16,07,11.10
2011,10,31,16,08,11.00
2011,10,31,16,09,11.00
2011,10,31,16,10,10.90
2011,10,31,16,11,10.90
2011,10,31,16,12,10.80
2011,10,31,16,13,10.80
2011,10,31,16,14,10.80
2011,10,31,16,15,10.80
2011,10,31,16,16,10.70
2011,10,31,16,17,10.70
2011,10,31,16,18,10.70
2011,10,31,16,19,10.70
2011,10,31,16,20,10.70
2011,10,31,16,21,10.70
2011,10,31,16,22,10.70
2011,10,31,16,23,10.60
2011,10,31,16,24,10.60
2011,10,31,16,25,10.50
2011,10,31,16,26,10.40
2011,10,31,16,27,10.40
2011,10,31,16,28,10.30
2011,10,31,16,29,10.20
2011,10,31,16,30,10.20
2011,10,31,16,31,10.10
2011,10,31,16,32,10.10
2011,10,31,16,33,10.00
2011,10,31,16,34,10.00
2011,10,31,16,35,9.90
2011,10,31,16,36,9.90
2011,10,31,16,37,9.90
2011,10,31,16,38,9.90
2011,10,31,16,39,9.90
2011,10,31,16,40,9.80
2011,10,31,16,41,9.80
2011,10,31,16,42,9.80
2011,10,31,16,43,9.80
2011,10,31,16,44,9.80
2011,10,31,16,45,9.80
2011,10,31,16,46,9.70
2011,10,31,16,47,9.70
2011,10,31,16,48,9.70
2011,10,31,16,49,9.70
2011,10,31,16,50,9.70
2011,10,31,16,51,9.70
2011,10,31,16,52,9.60
2011,10,31,16,53,9.60
2011,10,31,16,54,9.60
2011,10,31,16,55,9.60
2011,10,31,16,56,9.60
2011,10,31,16,57,9.60
2011,10,31,16,58,9.60
2011,10,31,16,59,9.60
2011,10,31,17,00,9.50
2011,10,31,17,01,9.50
2011,10,31,17,02,9.40
2011,10,31,17,03,9.40
2011,10,31,17,04,9.40
2011,10,31,17,05,9.40
2011,10,31,17,06,9.40
2011,10,31,17,07,9.40
2011,10,31,17,08,9.30
2011,10,31,17,09,9.30
2011,10,31,17,10,9.30
2011,10,31,17,11,9.30
2011,10,31,17,12,9.30
2011,10,31,17,13,9.30
2011,10,31,17,14,9.20
2011,10,31,17,15,9.20
2011,10,31,17,16,9.20
2011,10,31,17,17,9.20
2011,10,31,17,18,9.10
2011,10,31,17,19,9.10
2011,10,31,17,20,9.10
2011,10,31,17,21,9.10
2011,10,31,17,22,9.10
2011,10,31,17,23,9.00
2011,10,31,17,24,9.00
2011,10,31,17,25,8.90
2011,10,31,17,26,8.90
2011,10,31,17,27,8.90
2011,10,31,17,28,8.80
2011,10,31,17,29,8.80
2011,10,31,17,30,8.80
2011,10,31,17,31,8.80
2011,10,31,17,32,8.80
2011,10,31,17,33,8.80
2011,10,31,17,34,8.80
2011,10,31,17,35,8.80
2011,10,31,17,36,8.80
2011,10,31,17,37,8.80
2011,10,31,17,38,8.80
2011,10,31,17,39,8.80
